Location: Newberry Star Park
(29.6730°N, 82.6011°W)
Time: 21:02:59
(UTC-05:00)

Tiangong 1 - Visible Passes

Search period start: 23 January 2018 00:00
Search period end: 02 February 2018 00:00
Orbit: 260 x 286 km, 42.8° (Epoch: 23 January)

Date Brightness Start Highest point End Pass type
(mag) Time Alt. Az. Time Alt. Az. Time Alt. Az.
23 Jan 2.8 19:30:14 10° NW 19:31:09 19° NW 19:31:09 19° NW visible
24 Jan 1.9 19:29:12 10° WNW 19:30:57 37° W 19:30:57 37° W visible
25 Jan 2.7 19:28:19 10° W 19:30:18 22° SW 19:30:53 20° SSW visible
26 Jan 4.0 19:28:27 10° SW 19:28:48 10° SW 19:29:09 10° SW visible
